RYR17ZZ EPKK-LDDU

Flight info

Callsign RYR17ZZ
Flight time 1h 13m
Altitude 38000
Route BABKO DCT NIDOK DCT PATAK DCT BAREB DCT NETKO
Aircraft B738/M-SDE3FGILRWY/SB1

Departure

Time 2026-05-01 11:27
Airport Kraków John Paul II International Airport (EPKK)

Arrival

Time 2026-05-01 12:40
Airport Dubrovnik Ruđer Bošković Airport (LDDU)
Time Latitude Longitude Altitude Speed Heading
2026-05-01 10:37 50.07452 19.80477 799 ft 0 kts 107°
2026-05-01 11:18 50.07455 19.80458 799 ft 4 kts 107°
2026-05-01 11:18 50.07462 19.80427 799 ft 3 kts 107°
2026-05-01 11:18 50.07465 19.80390 799 ft 4 kts 70°
2026-05-01 11:18 50.07455 19.80364 799 ft 4 kts 49°
2026-05-01 11:19 50.07442 19.80331 799 ft 3 kts 77°
2026-05-01 11:19 50.07441 19.80324 799 ft 0 kts 77°
2026-05-01 11:23 50.07448 19.80349 799 ft 5 kts 59°
2026-05-01 11:23 50.07494 19.80389 799 ft 10 kts 18°
2026-05-01 11:23 50.07559 19.80420 799 ft 10 kts 12°
2026-05-01 11:24 50.07624 19.80410 799 ft 9 kts 349°
2026-05-01 11:24 50.07687 19.80391 799 ft 9 kts 348°
2026-05-01 11:24 50.07807 19.80349 799 ft 9 kts 347°
2026-05-01 11:25 50.07864 19.80329 799 ft 8 kts 347°
2026-05-01 11:25 50.07974 19.80293 799 ft 8 kts 348°
2026-05-01 11:25 50.08016 19.80265 799 ft 6 kts 309°
2026-05-01 11:26 50.08012 19.80197 799 ft 7 kts 257°
2026-05-01 11:26 50.07865 19.79139 799 ft 113 kts 258°
2026-05-01 11:26 50.07659 19.77685 946 ft 151 kts 257°
2026-05-01 11:27 50.07435 19.76058 1539 ft 164 kts 257°
2026-05-01 11:27 50.07173 19.74333 2358 ft 159 kts 260°
2026-05-01 11:27 50.06921 19.72625 3042 ft 158 kts 260°
2026-05-01 11:27 50.06677 19.70981 3738 ft 160 kts 262°
2026-05-01 11:28 50.06386 19.69144 3963 ft 191 kts 252°
2026-05-01 11:28 50.05474 19.67472 4171 ft 222 kts 212°
2026-05-01 11:28 50.03961 19.66610 4470 ft 239 kts 199°
2026-05-01 11:29 50.00649 19.65104 5453 ft 265 kts 197°
2026-05-01 11:29 49.98843 19.64284 5862 ft 280 kts 197°
2026-05-01 11:29 49.95012 19.62534 7189 ft 291 kts 197°
2026-05-01 11:30 49.93052 19.61634 7868 ft 297 kts 196°
2026-05-01 11:30 49.91059 19.60716 8591 ft 301 kts 195°
2026-05-01 11:30 49.89034 19.59781 9285 ft 307 kts 195°
2026-05-01 11:30 49.86971 19.58828 9984 ft 312 kts 195°
2026-05-01 11:31 49.84870 19.57857 10621 ft 319 kts 195°
2026-05-01 11:31 49.82672 19.56843 10877 ft 341 kts 195°
2026-05-01 11:31 49.80352 19.55774 11363 ft 353 kts 195°
2026-05-01 11:31 49.77976 19.54677 12048 ft 359 kts 195°
2026-05-01 11:32 49.75570 19.53567 12801 ft 363 kts 195°
2026-05-01 11:32 49.73128 19.52441 13510 ft 369 kts 194°
2026-05-01 11:32 49.70641 19.51297 14227 ft 376 kts 194°
2026-05-01 11:32 49.68117 19.50135 14921 ft 381 kts 194°
2026-05-01 11:33 49.65568 19.48964 15692 ft 383 kts 194°
2026-05-01 11:33 49.63001 19.47788 16427 ft 387 kts 194°
2026-05-01 11:33 49.60386 19.46743 17133 ft 390 kts 187°
2026-05-01 11:33 49.57703 19.46058 17853 ft 393 kts 185°
2026-05-01 11:34 49.54981 19.45480 18523 ft 397 kts 184°
2026-05-01 11:34 49.52223 19.44921 19146 ft 401 kts 184°
2026-05-01 11:34 49.49447 19.44349 19783 ft 405 kts 184°
2026-05-01 11:34 49.46642 19.43752 20399 ft 409 kts 184°
2026-05-01 11:35 49.43808 19.43132 21000 ft 413 kts 184°
2026-05-01 11:35 49.40952 19.42494 21588 ft 417 kts 184°
2026-05-01 11:35 49.38059 19.41840 22175 ft 422 kts 184°
2026-05-01 11:35 49.35146 19.41176 22768 ft 425 kts 184°
2026-05-01 11:36 49.32207 19.40506 23347 ft 429 kts 184°
2026-05-01 11:36 49.29243 19.39829 23898 ft 433 kts 184°
2026-05-01 11:36 49.26250 19.39147 24366 ft 437 kts 184°
2026-05-01 11:36 49.23232 19.38460 24852 ft 440 kts 184°
2026-05-01 11:37 49.21221 19.38002 25197 ft 441 kts 184°
2026-05-01 11:37 49.17148 19.37077 25837 ft 445 kts 184°
2026-05-01 11:37 49.14073 19.36381 26312 ft 449 kts 184°
2026-05-01 11:37 49.10968 19.35680 26724 ft 452 kts 184°
2026-05-01 11:38 49.07847 19.34974 27149 ft 455 kts 184°
2026-05-01 11:38 49.04695 19.34263 27549 ft 459 kts 184°
2026-05-01 11:38 49.01527 19.33550 27962 ft 463 kts 184°
2026-05-01 11:38 48.98331 19.32830 28371 ft 465 kts 184°
2026-05-01 11:39 48.95121 19.32109 28776 ft 468 kts 184°
2026-05-01 11:39 48.91889 19.31383 29197 ft 471 kts 184°
2026-05-01 11:39 48.88634 19.30653 29613 ft 474 kts 184°
2026-05-01 11:39 48.85363 19.29920 30004 ft 477 kts 184°
2026-05-01 11:40 48.82071 19.29184 30382 ft 480 kts 184°
2026-05-01 11:40 48.78754 19.28444 30702 ft 483 kts 184°
2026-05-01 11:40 48.75422 19.27701 31031 ft 485 kts 184°
2026-05-01 11:40 48.72082 19.26956 31364 ft 486 kts 184°
2026-05-01 11:41 48.68725 19.26210 31645 ft 489 kts 184°
2026-05-01 11:41 48.65354 19.25462 31908 ft 491 kts 184°
2026-05-01 11:41 48.62003 19.24719 32169 ft 494 kts 184°
2026-05-01 11:41 48.58598 19.23964 32431 ft 496 kts 184°
2026-05-01 11:42 48.55177 19.23207 32742 ft 497 kts 184°
2026-05-01 11:42 48.51760 19.22451 33101 ft 497 kts 184°
2026-05-01 11:42 48.48343 19.21696 33460 ft 496 kts 184°
2026-05-01 11:42 48.44922 19.20942 33838 ft 495 kts 184°
2026-05-01 11:43 48.41519 19.20193 34217 ft 494 kts 184°
2026-05-01 11:43 48.38117 19.19445 34524 ft 494 kts 184°
2026-05-01 11:43 48.34708 19.18698 34792 ft 495 kts 184°
2026-05-01 11:44 48.27887 19.17205 35315 ft 495 kts 184°
2026-05-01 11:44 48.25631 19.16712 35528 ft 494 kts 184°
2026-05-01 11:44 48.22232 19.15970 35843 ft 493 kts 184°
2026-05-01 11:44 48.18838 19.15229 36147 ft 493 kts 184°
2026-05-01 11:45 48.15438 19.14489 36361 ft 494 kts 184°
2026-05-01 11:45 48.12038 19.13750 36625 ft 493 kts 184°
2026-05-01 11:45 48.08645 19.13013 36946 ft 492 kts 184°
2026-05-01 11:45 48.05275 19.12185 37254 ft 491 kts 187°
2026-05-01 11:46 48.01922 19.11180 37523 ft 491 kts 189°
2026-05-01 11:46 47.98585 19.10093 37778 ft 491 kts 189°
2026-05-01 11:46 47.95249 19.08978 38027 ft 491 kts 189°
2026-05-01 11:46 47.91919 19.07866 38290 ft 490 kts 189°
2026-05-01 11:47 47.85221 19.05677 38353 ft 495 kts 189°
2026-05-01 11:47 47.78510 19.03532 38340 ft 491 kts 189°
2026-05-01 11:48 47.71844 19.01423 38350 ft 488 kts 189°
2026-05-01 11:48 47.65213 18.99331 38350 ft 486 kts 189°
2026-05-01 11:49 47.58611 18.97253 38350 ft 485 kts 189°
2026-05-01 11:49 47.52018 18.95182 38353 ft 484 kts 189°
2026-05-01 11:50 47.45418 18.93113 38353 ft 485 kts 189°
2026-05-01 11:50 47.38814 18.91048 38353 ft 486 kts 189°
2026-05-01 11:51 47.32228 18.88995 38358 ft 488 kts 189°
2026-05-01 11:51 47.25577 18.86926 38353 ft 489 kts 189°
2026-05-01 11:52 47.18902 18.84855 38355 ft 491 kts 189°
2026-05-01 11:52 47.12210 18.82783 38357 ft 492 kts 189°
2026-05-01 11:53 47.05502 18.80713 38385 ft 493 kts 189°
2026-05-01 11:53 46.98784 18.78644 38358 ft 494 kts 189°
2026-05-01 11:54 46.92055 18.76577 38341 ft 494 kts 189°
2026-05-01 11:54 46.85339 18.74519 38360 ft 493 kts 189°
2026-05-01 11:55 46.78635 18.72470 38349 ft 492 kts 189°
2026-05-01 11:55 46.71950 18.70433 38353 ft 490 kts 189°
2026-05-01 11:56 46.65287 18.68407 38354 ft 488 kts 189°
2026-05-01 11:56 46.58643 18.66392 38353 ft 487 kts 189°
2026-05-01 11:57 46.52016 18.64388 38355 ft 486 kts 189°
2026-05-01 11:57 46.45402 18.62392 38364 ft 485 kts 189°
2026-05-01 11:58 46.38807 18.60408 38355 ft 484 kts 189°
2026-05-01 11:59 46.28931 18.57444 38354 ft 483 kts 189°
2026-05-01 11:59 46.22355 18.55477 38359 ft 482 kts 189°
2026-05-01 12:00 46.12493 18.52536 38348 ft 482 kts 189°
2026-05-01 12:01 46.02631 18.49606 38362 ft 483 kts 189°
2026-05-01 12:01 45.96051 18.47657 38346 ft 483 kts 189°
2026-05-01 12:02 45.89471 18.45712 38360 ft 483 kts 189°
2026-05-01 12:02 45.82885 18.43770 38354 ft 483 kts 190°
2026-05-01 12:03 45.76354 18.41849 38340 ft 482 kts 189°
2026-05-01 12:03 45.69792 18.39929 38342 ft 481 kts 189°
2026-05-01 12:04 45.63235 18.38027 38345 ft 480 kts 190°
2026-05-01 12:04 45.56691 18.36132 38351 ft 479 kts 190°
2026-05-01 12:05 45.50161 18.34244 38340 ft 479 kts 190°
2026-05-01 12:05 45.40376 18.31423 38346 ft 478 kts 190°
2026-05-01 12:06 45.33854 18.29547 38343 ft 478 kts 190°
2026-05-01 12:06 45.27337 18.27678 38347 ft 478 kts 190°
2026-05-01 12:07 45.20812 18.25811 38345 ft 478 kts 190°
2026-05-01 12:07 45.14281 18.23946 38349 ft 479 kts 190°
2026-05-01 12:08 45.07750 18.22085 38349 ft 479 kts 190°
2026-05-01 12:08 45.01209 18.20226 38348 ft 479 kts 190°
2026-05-01 12:09 44.94663 18.18370 38343 ft 480 kts 190°
2026-05-01 12:09 44.88266 18.16558 38316 ft 454 kts 190°
2026-05-01 12:10 44.85208 18.15693 38150 ft 445 kts 190°
2026-05-01 12:10 44.79098 18.13972 36533 ft 460 kts 189°
2026-05-01 12:10 44.75911 18.13079 35667 ft 471 kts 189°
2026-05-01 12:11 44.69537 18.11288 34851 ft 465 kts 188°
2026-05-01 12:11 44.66373 18.10399 34432 ft 462 kts 188°
2026-05-01 12:11 44.63234 18.09518 33979 ft 459 kts 188°
2026-05-01 12:12 44.60109 18.08641 33545 ft 456 kts 187°
2026-05-01 12:12 44.57015 18.07775 33126 ft 453 kts 187°
2026-05-01 12:12 44.53936 18.06914 32723 ft 449 kts 187°
2026-05-01 12:12 44.50881 18.06061 32338 ft 446 kts 187°
2026-05-01 12:13 44.47853 18.05216 31950 ft 443 kts 186°
2026-05-01 12:13 44.44840 18.04377 31566 ft 440 kts 186°
2026-05-01 12:13 44.41851 18.03546 31191 ft 437 kts 186°
2026-05-01 12:13 44.38873 18.02719 30813 ft 435 kts 185°
2026-05-01 12:14 44.35916 18.01898 30439 ft 432 kts 185°
2026-05-01 12:14 44.32974 18.01083 29989 ft 430 kts 185°
2026-05-01 12:14 44.30044 18.00272 29585 ft 428 kts 186°
2026-05-01 12:14 44.27133 17.99468 29171 ft 425 kts 186°
2026-05-01 12:15 44.24239 17.98669 28787 ft 422 kts 186°
2026-05-01 12:15 44.21365 17.97875 28394 ft 420 kts 186°
2026-05-01 12:15 44.18511 17.97088 28000 ft 417 kts 187°
2026-05-01 12:15 44.15671 17.96306 27613 ft 415 kts 187°
2026-05-01 12:16 44.12852 17.95530 27245 ft 412 kts 187°
2026-05-01 12:16 44.10053 17.94760 26864 ft 408 kts 188°
2026-05-01 12:16 44.07310 17.94006 26487 ft 405 kts 188°
2026-05-01 12:16 44.04524 17.93241 26119 ft 401 kts 188°
2026-05-01 12:17 44.01831 17.92501 25744 ft 398 kts 188°
2026-05-01 12:17 43.99127 17.91761 25388 ft 395 kts 188°
2026-05-01 12:17 43.96443 17.91027 25013 ft 392 kts 188°
2026-05-01 12:17 43.93776 17.90298 24679 ft 389 kts 189°
2026-05-01 12:18 43.91132 17.89576 24307 ft 387 kts 189°
2026-05-01 12:18 43.88496 17.88857 23946 ft 385 kts 189°
2026-05-01 12:18 43.85869 17.88141 23540 ft 385 kts 189°
2026-05-01 12:18 43.83242 17.87425 23142 ft 385 kts 189°
2026-05-01 12:19 43.80614 17.86710 22736 ft 385 kts 189°
2026-05-01 12:19 43.77992 17.85996 22389 ft 383 kts 189°
2026-05-01 12:19 43.75372 17.85284 22008 ft 383 kts 190°
2026-05-01 12:19 43.72760 17.84575 21638 ft 382 kts 189°
2026-05-01 12:20 43.70155 17.83868 21273 ft 381 kts 190°
2026-05-01 12:20 43.67564 17.83166 20908 ft 378 kts 189°
2026-05-01 12:20 43.64992 17.82469 20543 ft 376 kts 190°
2026-05-01 12:20 43.62434 17.81776 20178 ft 373 kts 189°
2026-05-01 12:21 43.59890 17.81088 19819 ft 371 kts 189°
2026-05-01 12:21 43.57367 17.80407 19478 ft 369 kts 189°
2026-05-01 12:21 43.54858 17.79730 19132 ft 366 kts 190°
2026-05-01 12:21 43.52367 17.79058 18792 ft 363 kts 190°
2026-05-01 12:22 43.49888 17.78390 18388 ft 363 kts 190°
2026-05-01 12:22 43.47417 17.77724 18023 ft 362 kts 189°
2026-05-01 12:22 43.44937 17.77057 17553 ft 366 kts 189°
2026-05-01 12:22 43.42447 17.76388 17157 ft 364 kts 189°
2026-05-01 12:23 43.39971 17.75723 16798 ft 361 kts 189°
2026-05-01 12:23 43.37519 17.75064 16440 ft 357 kts 189°
2026-05-01 12:23 43.35091 17.74413 16075 ft 354 kts 189°
2026-05-01 12:23 43.32685 17.73768 15748 ft 350 kts 189°
2026-05-01 12:24 43.30307 17.73131 15410 ft 347 kts 189°
2026-05-01 12:24 43.27948 17.72501 15077 ft 343 kts 189°
2026-05-01 12:24 43.25611 17.71876 14746 ft 341 kts 189°
2026-05-01 12:24 43.23294 17.71257 14408 ft 338 kts 189°
2026-05-01 12:25 43.21001 17.70645 14109 ft 335 kts 189°
2026-05-01 12:25 43.16446 17.69431 13369 ft 331 kts 188°
2026-05-01 12:25 43.14196 17.68832 13035 ft 328 kts 188°
2026-05-01 12:26 43.11969 17.68239 12711 ft 324 kts 188°
2026-05-01 12:26 43.07568 17.67070 12086 ft 320 kts 188°
2026-05-01 12:26 43.05386 17.66490 11760 ft 319 kts 188°
2026-05-01 12:27 43.03283 17.65536 11428 ft 322 kts 208°
2026-05-01 12:27 42.99565 17.62212 10909 ft 315 kts 211°
2026-05-01 12:28 42.96035 17.59117 10689 ft 287 kts 211°
2026-05-01 12:28 42.94393 17.57693 10584 ft 274 kts 210°
2026-05-01 12:28 42.91094 17.55722 10102 ft 254 kts 172°
2026-05-01 12:29 42.89462 17.56293 9838 ft 241 kts 147°
2026-05-01 12:29 42.88127 17.57581 9598 ft 233 kts 131°
2026-05-01 12:29 42.85865 17.60729 9036 ft 231 kts 128°
2026-05-01 12:30 42.83627 17.63909 8484 ft 233 kts 130°
2026-05-01 12:30 42.82500 17.65493 8234 ft 232 kts 130°
2026-05-01 12:30 42.81372 17.67068 7984 ft 233 kts 129°
2026-05-01 12:31 42.80237 17.68647 7722 ft 233 kts 130°
2026-05-01 12:31 42.79105 17.70219 7491 ft 232 kts 130°
2026-05-01 12:31 42.78342 17.71277 7326 ft 232 kts 129°
2026-05-01 12:31 42.77279 17.72871 7076 ft 228 kts 119°
2026-05-01 12:32 42.76543 17.74753 6846 ft 224 kts 112°
2026-05-01 12:32 42.75120 17.78532 6357 ft 224 kts 113°
2026-05-01 12:32 42.74397 17.80404 6102 ft 223 kts 114°
2026-05-01 12:33 42.73673 17.82263 5865 ft 221 kts 114°
2026-05-01 12:33 42.72953 17.84097 5655 ft 219 kts 114°
2026-05-01 12:33 42.72241 17.85924 5423 ft 218 kts 114°
2026-05-01 12:33 42.71530 17.87744 5203 ft 218 kts 114°
2026-05-01 12:34 42.70820 17.89563 4956 ft 217 kts 114°
2026-05-01 12:34 42.70117 17.91359 4829 ft 211 kts 114°
2026-05-01 12:34 42.69433 17.93105 4721 ft 209 kts 113°
2026-05-01 12:34 42.68745 17.94860 4660 ft 213 kts 114°
2026-05-01 12:35 42.68037 17.96663 4566 ft 220 kts 114°
2026-05-01 12:35 42.67316 17.98499 4377 ft 221 kts 114°
2026-05-01 12:35 42.66602 18.00340 4142 ft 220 kts 113°
2026-05-01 12:35 42.65890 18.02171 3914 ft 218 kts 114°
2026-05-01 12:36 42.65178 18.03986 3683 ft 218 kts 114°
2026-05-01 12:36 42.64472 18.05804 3451 ft 217 kts 113°
2026-05-01 12:36 42.63767 18.07605 3235 ft 213 kts 114°
2026-05-01 12:36 42.63086 18.09318 3083 ft 202 kts 114°
2026-05-01 12:37 42.62431 18.10964 2831 ft 195 kts 114°
2026-05-01 12:37 42.61794 18.12564 2573 ft 190 kts 114°
2026-05-01 12:37 42.61172 18.14129 2323 ft 187 kts 113°
2026-05-01 12:37 42.60569 18.15646 2070 ft 177 kts 113°
2026-05-01 12:38 42.60007 18.17059 1836 ft 164 kts 112°
2026-05-01 12:38 42.59497 18.18342 1635 ft 147 kts 112°
2026-05-01 12:38 42.59027 18.19528 1436 ft 141 kts 113°
2026-05-01 12:38 42.58561 18.20705 1259 ft 142 kts 115°
2026-05-01 12:39 42.58082 18.21882 1096 ft 142 kts 113°
2026-05-01 12:39 42.57630 18.23079 937 ft 145 kts 110°
2026-05-01 12:39 42.57137 18.24290 673 ft 144 kts 111°
2026-05-01 12:39 42.56695 18.25426 524 ft 125 kts 109°
2026-05-01 12:40 42.56393 18.26189 526 ft 57 kts 120°
2026-05-01 12:40 42.56245 18.26553 526 ft 21 kts 118°
2026-05-01 12:40 42.56170 18.26627 526 ft 13 kts 203°
2026-05-01 12:40 42.56130 18.26555 526 ft 7 kts 239°
2026-05-01 12:41 42.56106 18.26498 524 ft 5 kts 242°
2026-05-01 12:41 42.56103 18.26481 523 ft 4 kts 259°
2026-05-01 12:41 42.56114 18.26407 523 ft 11 kts 297°
2026-05-01 12:41 42.56157 18.26302 523 ft 13 kts 298°
2026-05-01 12:42 42.56199 18.26197 523 ft 12 kts 300°
2026-05-01 12:42 42.56209 18.26121 522 ft 7 kts 225°
2026-05-01 12:42 42.56188 18.26113 521 ft 0 kts 189°
2026-05-01 12:42 42.56171 18.26104 520 ft 3 kts 204°
2026-05-01 12:43 42.56166 18.26101 520 ft 0 kts 205°